Torna al catalogo

STARLINK-37827

AttivoComunicazioniVLEO
NORAD 100291·PAYLOAD·🇺🇸 United States

Lanciato Aug 11, 2026 da Cape Canaveral Space Force Station

Loading…

Prossimi Passaggi (prossime 24 ore)

TLE

In scadenzaSource: Space-Track

Epoca: Sep 11, 2026, 13:26 UTC

1 A0291U 26183V   26254.55996392 -.00991816  00000-0 -75972-2 0  9997
2 A0291  53.1581 301.1468 0002067  14.6328 345.4752 15.73805086  4905

Traccia STARLINK-37827 in tempo reale con AllMySat

Download on the App Store